Preview of NWS' New Version of Forecast
This preview is not operational and should not be used for support decisions.

Regional Weather Roundup (RWR)

Issued by Gray - Portland, ME (GYX)

                            
000
ASUS41 KGYX 211205
RWRGYX
WEATHER ROUNDUP FOR MAINE AND NEW HAMPSHIRE
NATIONAL WEATHER SERVICE GRAY ME
800 AM EDT SUN JUL 21 2019

MEZ002-005-006-010-012-015-018-020-021-024-026-027-029-211300-
MAINE
  
CITY           SKY/WX    TMP DP  RH WIND       PRES   REMARKS
PORTLAND       FAIR      84  74  71 W10       29.65S HX  91           
6HR MIN TEMP:  76; 6HR MAX TEMP:  84;                                

SANFORD        FAIR      84  73  69 W10       29.69R HX  90           
BAR HARBOR     FAIR      75  70  84 S6        29.63S                  
WISCASSET      FAIR      81  73  76 CALM      29.65F                  
6HR MIN TEMP:  70; 6HR MAX TEMP:  81;                                

ROCKLAND       FAIR      80  74  81 W3        29.63S                  
FRYEBURG       FAIR      83  72  69 SW5       29.68S                  
6HR MIN TEMP:  73; 6HR MAX TEMP:  83;                                

LEWISTONAUBURN FAIR      82  76  81 SW5       29.66R                  
AUGUSTA        FAIR      82  74  76 CALM      29.65S                  
6HR MIN TEMP:  73; 6HR MAX TEMP:  83;                                

WATERVILLE     FAIR      80  74  81 SW3       29.62F                  
BANGOR         FAIR      81  73  76 VRB3      29.62F                  
6HR MIN TEMP:  71; 6HR MAX TEMP:  81;                                

GREENVILLE       N/A     75  70  84 NW6       29.65F                  
6HR MIN TEMP:  74; 6HR MAX TEMP:  78;                                

MILLINOCKET    FAIR      79  71  76 CALM      29.64R                  
6HR MIN TEMP:  73; 6HR MAX TEMP:  80;                                

HOULTON        FAIR      73  65  75 N6        29.63S                  
6HR MIN TEMP:  69; 6HR MAX TEMP:  76;                                

PRESQUE ISLE   LGT RAIN  68  65  90 NW3       29.68R                  
6HR MIN TEMP:  66; 6HR MAX TEMP:  73; 6HR PCP: TRACE;                

FRENCHVILLE    LGT RAIN  64  62  93 CALM      29.68R                  
6HR MIN TEMP:  63; 6HR MAX TEMP:  66; 6HR PCP:  0.01;                

CARIBOU        LGT RAIN  69  64  84 CALM      29.66R                  
6HR MIN TEMP:  66; 6HR MAX TEMP:  71; 6HR PCP: TRACE;                

$$

NHZ002-005-008-009-011-012-014-211300-
NEW HAMPSHIRE
  
CITY           SKY/WX    TMP DP  RH WIND       PRES   REMARKS
PORTSMOUTH     MOSUNNY   83  71  66 W9        29.67F                  
ROCHESTER      FAIR      83  71  67 VRB3      29.69S                  
6HR MIN TEMP:  77; 6HR MAX TEMP:  83;                                

NASHUA         FAIR      82  75  79 VRB5      29.73R                  
MANCHESTER     FAIR      83  72  69 SW6       29.70S                  
6HR MIN TEMP:  79; 6HR MAX TEMP:  83;                                

CONCORD        FAIR      83  71  67 W6        29.71S                  
6HR MIN TEMP:  74; 6HR MAX TEMP:  83;                                

LACONIA        FAIR      82  72  71 SW8       29.72S                  
PLYMOUTH       FAIR      78  71  80 NW3       29.71S                  
BERLIN         FAIR      77  71  82 S3        29.70F                  
6HR MIN TEMP:  67; 6HR MAX TEMP:  77;                                

WHITEFIELD     PTSUNNY   75  71  87 CALM      29.72F                  
6HR MIN TEMP:  66; 6HR MAX TEMP:  75;                                

JAFFREY        FAIR      79  68  69 VRB3      29.79S                  
6HR MIN TEMP:  72; 6HR MAX TEMP:  79;                                

KEENE          FAIR      79  71  76 S6        29.76S                  
LEBANON        FAIR      81  71  71 S8        29.72F                  
6HR MIN TEMP:  73; 6HR MAX TEMP:  81;                                

MT WASHINGTON  FOG       59  59 100 W53G60      N/A  VSB 0            
6HR MIN TEMP:  58; 6HR MAX TEMP:  63; 6HR PCP:  0.09;                

$$

VTZ005-007-008-211300-
VERMONT
  
CITY           SKY/WX    TMP DP  RH WIND       PRES   REMARKS
ST JOHNSBURY     N/A     75  72  90 MISG      29.69S                  
MONTPELIER     FAIR      77  72  84 CALM      29.77S                  
BURLINGTON     PTSUNNY   78  70  76 S9        29.70R                  
$$

MAZ007-012-024-CTZ003-RIZ002-NYZ038-NYZ072-211300-
SOUTHERN NEW ENGLAND AND NY
  
CITY           SKY/WX    TMP DP  RH WIND       PRES   REMARKS
BOSTON         FAIR      87  70  56 W12       29.71S HX  92           
WORCESTER      FAIR      78  69  73 W15       29.79R                  
NANTUCKET      FAIR      77  73  87 SW9       29.75F                  
PROVIDENCE     PTSUNNY   85  75  72 W10       29.76R HX  93           
HARTFORD       PTSUNNY   81  71  71 SW6       29.77R                  
ALBANY         PTSUNNY   75  69  81 S7        29.79S                  
NEW YORK CITY  FAIR      88  71  57 W10       29.80R HX  94           
$$

ANZ081-ANZ082-ANZ150-NHZ014-MEZ023>029-211300-
COASTAL MARINE OBSERVATIONS
  
STATION/POSITION TIME  TEMP    WIND        PRES    WAVE
                       AIR SEA DIR/SP/G            HT/PER
                 (UTC) (F)     (DEG/KT/KT) (MB)    (FT/S)
ISLE OF SHOALS   1100   77     270/ 14/ 15 1004.5R
JEFFREYS LEDGE   1138      67                N/A     2/ 7
CASHES LEDGE BUO 1150   65 59  250/  8/  8 1004.6S   2/ 7
GEORGES BANK BUO 1150   66 60  230/ 10/ 12 1008.4F   3/ 6
$$

.............KEY..............
   WCI - WIND CHILL
   TC  - TEMPERATURE IN CELSIUS
   VSB - VISIBILITY IN MILES
   HX  - HEAT INDEX
   FAIR- INDICATES FEW OR NO CLOUDS BELOW 12,000 FT, WITH NO 
         SIGNIFICANT WEATHER AND/OR OBSTRUCTIONS TO VISIBILITY.